SCP
0 1 1 1 1 1 1 1 1 1 1 1 1 1 1 1 1 1 2 1 1 1 1 1 1 1 0 0 0 0 0 0 0 0 1 1 1 1 1 1 1 1 1
1 1 1 1 1 1 1 1 1 1 1 1 1 1 1 1 1 1 1 1 1 1 1 1 1 1 0 0 0 0 0 1 1 0 0 1 1 1 1 1 1 1 1
1 1 1 1 1 1 1 1 1 1 1 1 1 1 1 1 1 1 1 1 1 1 1 1 1 0 0 0 0 0 1 1 1 0 0 0 0 0 1 1 1 1 1
1 1 1 1 1 1 1 1 1 1 1 1 0 0 0 1 1 1 1 1 1 1 1 0 0 0 0 0 0 0 1 1 1 0 0 0 0 1 1 1 1 1 1
1 1 1 1 1 1 1 1 1 0 0 0 0 0 0 0 0 0 0 0 0 0 0 0 0 0 0 0 0 0 0 1 1 0 0 0 1 1 1 1 1 1 1
0 1 1 1 1 1 1 0 0 0 0 0 0 0 0 0 0 0 0 0 0 0 0 0 0 0 0 0 0 0 0 0 0 0 0 0 1 1 1 1 1 1 1
0 0 1 1 1 1 1 1 1 1 1 0 0 0 0 0 0 0 0 0 0 0 0 0 0 0 0 0 0 0 0 0 0 1 1 1 1 1 1 1 1 1 1
0 0 0 0 1 1 1 1 1 1 1 0 0 0 0 0 0 0 0 0 0 0 0 0 0 0 0 0 0 0 0 1 1 1 1 1 1 2 2 2 2 1 1
0 0 0 0 1 1 1 1 1 1 1 0 0 0 0 0 0 1 1 1 1 0 0 0 0 0 0 0 0 0 1 0 0 1 1 1 1 3 3 3 2 2 2
0 0 0 0 1 1 1 1 1 1 1 1 0 0 0 0 0 0 0 0 0 0 0 0 0 0 0 0 1 1 1 0 0 0 1 1 2 2 2 2 1 2 2
1 1 0 1 1 1 1 1 1 0 1 0 0 0 0 0 0 0 0 0 0 0 0 0 0 0 0 0 1 1 1 0 0 0 0 1 1 1 1 1 1 1 1
1 1 1 1 1 1 1 1 0 0 0 0 0 0 0 0 0 0 0 0 0 0 0 0 0 0 0 0 0 0 0 0 0 0 1 1 1 1 1 1 1 1 1
2 2 1 1 1 1 1 1 0 0 0 0 0 0 0 0 0 0 0 0 0 0 0 0 0 0 0 0 0 0 0 0 0 0 1 1 2 1 1 1 1 1 1
2 2 2 1 1 1 1 0 0 0 0 0 0 0 0 0 0 0 0 0 0 0 0 0 0 0 0 0 0 0 0 0 0 0 1 2 2 2 2 2 2 2 2
3 3 3 2 1 1 1 1 0 0 0 0 0 0 0 0 0 0 0 0 0 0 0 0 0 0 0 0 0 0 0 0 0 0 1 2 2 2 2 2 2 2 2
4 4 4 3 2 2 1 1 1 0 0 0 0 0 0 0 0 0 0 0 0 0 0 0 0 0 0 0 0 0 0 0 0 0 0 1 2 2 3 3 3 3 3
6 5 5 5 4 3 2 1 1 1 1 1 1 1 1 1 1 1 0 0 0 0 0 0 0 0 0 0 0 0 0 0 0 0 0 1 1 2 3 4 5 4 4
8 7 7 7 6 4 3 2 2 2 1 1 1 1 1 1 1 1 1 0 0 0 0 0 0 0 0 0 0 0 0 0 0 0 0 0 0 1 2 3 4 5 4
10 9 9 8 7 5 4 4 3 3 2 2 2 2 1 1 1 1 0 0 0 0 0 0 0 0 0 0 0 0 0 0 0 0 0 0 0 0 1 2 3 3 3
10 10 10 10 8 7 7 6 6 5 4 3 2 2 1 1 1 0 0 0 0 0 0 0 0 0 0 0 0 0 0 0 0 0 0 0 0 0 0 1 1 2 2
12 12 12 11 10 9 9 9 8 6 4 3 1 1 1 1 0 0 0 0 0 0 0 0 0 0 0 0 0 0 0 0 0 0 0 0 0 0 0 0 0 0 1
14 15 15 13 11 10 10 10 8 6 3 2 1 0 0 0 0 0 0 0 0 0 0 0 0 0 0 0 0 0 0 0 0 0 0 0 0 0 0 0 0 0 0
18 18 18 16 13 12 11 9 6 3 2 1 0 0 0 0 0 0 0 0 0 0 0 0 0 0 0 0 0 0 0 0 0 0 0 0 0 0 0 0 0 0 0
20 21 20 17 14 12 10 7 4 2 1 0 0 0 0 0 0 0 0 0 0 0 0 0 0 0 0 0 0 0 0 0 0 0 0 0 0 0 0 0 0 0 0
21 21 20 17 14 10 7 5 3 1 0 0 0 0 0 0 0 0 0 0 0 0 0 0 0 0 0 0 0 0 0 0 0 0 0 0 0 0 0 0 0 0 0
19 21 19 16 13 9 5 3 2 1 0 0 0 0 0 0 0 0 0 0 0 0 0 0 0 0 0 0 0 0 0 0 0 0 0 0 0 0 0 0 0 0 0
Wind_Speed
7 7 13 14 15 14 14 14 15 15 16 16 15 15 15 14 14 13 13 13 13 12 13 12 11 10 9 9 8 8 8 8 7 9 10 11 10 10 9 10 11 8 12
12 10 14 15 15 15 15 15 15 15 15 15 14 14 14 13 12 12 12 12 11 12 12 11 10 8 7 7 6 7 7 6 5 5 7 8 9 9 9 10 11 7 10
14 10 13 16 16 16 15 15 15 15 15 14 14 13 13 12 11 11 11 11 11 11 10 9 8 7 6 5 5 5 5 4 3 3 3 2 4 7 8 10 11 10 10
14 9 12 16 16 16 15 15 15 16 16 15 14 14 13 12 10 10 10 11 10 10 9 8 7 5 4 3 3 4 5 4 3 2 0 1 2 6 8 9 10 10 9
11 9 12 18 17 16 16 16 15 16 16 15 14 14 12 11 10 9 10 10 10 9 8 7 6 4 2 1 2 4 5 5 4 2 1 2 2 6 7 8 8 8 8
12 10 12 17 17 16 16 16 16 16 15 15 14 13 11 10 9 9 10 10 9 8 7 6 5 3 1 1 3 4 5 6 4 0 2 3 3 6 7 7 7 7 7
11 8 10 16 16 16 16 16 16 15 14 14 13 12 10 9 9 9 9 9 8 8 7 6 5 3 3 3 4 5 6 6 3 2 3 3 4 7 8 7 7 7 7
12 9 10 16 17 16 16 15 14 14 13 13 12 11 10 9 9 9 9 9 8 8 7 6 5 5 4 4 5 5 5 4 3 2 3 4 6 8 9 8 8 7 6
12 10 8 9 12 16 16 15 14 13 12 12 11 10 10 9 9 10 9 9 9 8 8 7 6 6 5 5 5 5 4 2 1 2 5 3 7 9 10 9 8 7 6
10 10 9 7 7 7 9 15 15 14 13 12 12 12 11 11 10 11 9 9 9 9 8 7 7 6 6 6 7 6 4 1 2 3 3 5 9 11 11 10 10 9 8
10 8 9 8 7 7 7 11 13 14 13 12 10 12 10 5 5 6 8 10 10 9 9 8 7 7 7 7 8 8 4 1 3 3 3 8 12 12 12 11 10 10 9
14 11 9 10 10 8 8 7 5 6 6 6 5 6 5 4 4 6 8 11 11 10 8 7 7 6 6 3 6 6 1 2 2 4 5 12 13 13 13 12 11 11 11
16 15 13 12 11 10 6 6 4 3 4 5 6 7 5 4 4 4 3 5 5 6 3 3 3 2 3 3 3 3 2 1 2 3 5 12 12 13 13 12 11 11 11
17 17 15 14 12 11 8 7 6 5 5 5 7 7 5 4 4 4 3 4 3 2 2 2 2 3 3 4 3 1 1 1 1 2 4 12 12 12 13 13 12 12 11
18 18 18 16 15 13 10 8 8 7 7 7 7 7 7 6 6 5 4 4 4 3 3 3 2 2 2 1 0 2 3 2 2 2 3 10 11 11 12 13 13 13 12
19 18 17 18 16 14 11 9 8 8 7 7 7 8 9 6 6 5 4 3 3 4 4 3 3 3 2 2 3 4 4 3 2 1 2 4 9 10 11 12 13 13 12
18 17 16 17 16 16 13 12 9 8 8 7 6 7 8 6 6 5 4 3 2 3 4 3 4 4 4 4 4 5 4 4 3 2 1 2 4 8 12 12 12 12 11
14 15 16 16 16 15 12 10 8 8 8 6 5 5 7 7 7 6 5 3 3 3 3 4 3 4 4 4 3 4 4 4 5 4 3 2 3 4 6 10 11 11 10
16 17 18 16 18 16 12 8 8 7 7 5 5 5 6 7 7 6 4 3 4 4 3 4 4 3 3 4 3 3 3 4 4 5 5 5 4 3 3 5 6 7 8
16 17 18 16 16 13 9 7 6 6 5 4 5 5 6 6 7 6 5 5 5 5 4 4 4 4 3 3 3 4 3 3 3 3 4 4 5 6 5 4 4 4 6
16 16 16 15 15 12 9 8 7 6 5 5 5 6 7 8 8 7 6 5 5 4 4 3 3 4 4 3 3 4 4 3 3 3 3 4 6 6 6 5 4 3 4
19 17 14 12 11 9 6 5 5 6 5 5 5 7 7 8 8 8 7 5 5 5 5 5 3 2 3 4 2 2 4 5 4 3 3 4 5 5 6 6 5 5 4
14 12 9 7 6 6 8 8 7 6 5 4 5 5 6 7 8 8 8 7 6 5 5 5 4 4 2 3 3 3 2 2 4 4 3 4 5 4 5 5 6 5 5
9 8 8 8 8 8 8 9 9 5 4 4 4 5 6 7 7 7 7 7 6 5 5 4 4 3 3 2 2 2 2 3 1 4 5 4 4 4 4 5 5 4 4
10 9 9 10 10 10 9 8 8 7 6 6 6 7 6 6 6 7 7 6 6 4 4 4 3 3 2 2 1 1 1 1 1 2 4 5 5 4 3 4 4 4 5
11 10 10 11 10 10 11 9 10 11 11 9 7 6 5 4 5 6 7 6 5 4 3 3 3 3 1 1 1 1 1 1 2 2 3 4 5 5 5 4 4 4 5
Wind_Direction
152 164 143 133 131 132 130 125 120 117 115 112 110 108 107 106 106 108 111 113 114 113 111 108 104 99 95 93 91 90 89 90 96 108 112 111 108 102 99 112 115 110 115
151 157 143 135 133 134 133 130 127 124 121 118 115 113 111 109 108 108 110 112 113 114 113 111 108 104 99 95 90 88 87 85 84 100 113 116 114 107 99 108 118 118 119
145 149 142 136 135 135 134 132 131 129 126 124 121 118 116 114 112 111 113 114 116 117 116 114 112 107 100 88 77 74 74 72 66 77 106 108 122 120 113 114 120 121 120
144 145 142 137 136 136 135 134 133 133 131 129 127 126 124 122 119 118 119 120 121 122 122 120 116 111 99 73 49 48 47 40 31 15 63 176 159 133 128 127 127 127 125
142 142 145 139 137 137 136 136 136 136 135 133 133 132 131 129 128 127 126 127 127 127 127 127 124 119 105 39 3 18 25 18 13 360 235 180 154 148 139 138 133 133 134
144 145 146 141 139 138 138 138 138 138 138 138 137 137 135 135 135 134 133 134 134 133 133 134 136 139 152 303 321 352 11 4 10 344 143 140 149 160 150 146 141 140 145
143 143 146 143 142 141 141 141 142 142 142 141 142 141 140 139 139 138 139 139 141 142 145 151 161 181 224 269 302 342 6 4 45 106 136 146 158 159 152 144 141 147 157
144 142 146 147 147 147 146 145 145 146 146 146 146 145 145 144 142 141 141 143 147 153 162 174 188 211 239 269 300 336 4 16 62 125 149 161 169 163 155 145 140 139 151
144 144 145 151 151 152 150 150 149 150 151 152 151 151 151 151 151 151 151 155 161 169 180 192 208 231 252 274 295 315 338 347 131 168 170 171 175 168 161 156 151 147 146
145 150 151 148 148 149 153 156 157 158 158 159 159 159 161 163 164 165 164 169 176 185 194 204 221 243 260 274 285 293 305 316 198 201 181 184 181 175 171 168 165 161 159
153 160 156 156 154 153 157 165 164 165 167 166 167 168 167 169 171 173 179 184 190 198 205 213 229 251 269 282 291 294 303 190 203 191 180 189 185 184 181 179 176 174 174
165 171 167 165 165 164 170 162 166 171 172 170 171 174 173 177 188 188 195 196 200 208 217 225 237 258 275 289 300 310 296 237 200 177 188 190 190 191 188 187 187 186 187
169 172 173 173 172 173 171 166 175 176 175 181 184 186 183 184 194 194 184 200 209 215 226 263 265 258 272 287 305 315 306 270 165 172 190 192 195 196 194 193 194 196 197
171 176 175 176 176 180 174 178 181 184 186 192 195 191 185 189 192 185 185 193 196 191 200 243 238 237 249 265 269 279 66 108 147 163 195 197 202 204 203 202 203 206 207
176 179 179 179 180 181 176 185 185 191 192 197 196 196 194 193 194 191 195 194 200 191 190 204 204 193 186 195 102 78 79 96 142 181 211 209 211 216 215 213 214 217 218
180 182 180 180 183 180 181 188 187 192 195 197 197 195 192 188 187 186 186 185 188 178 169 164 148 127 100 77 53 47 54 63 79 195 253 246 239 235 231 228 228 228 228
179 180 178 180 183 184 186 191 190 190 191 195 191 183 176 169 165 154 149 156 162 145 131 113 99 82 66 47 31 21 24 18 17 16 314 282 280 266 255 245 239 235 235
173 173 175 179 182 187 185 186 184 183 183 185 173 164 159 150 142 133 132 132 125 111 105 99 84 73 55 39 15 1 6 5 1 351 349 326 299 282 275 263 249 240 239
175 172 176 176 178 182 177 171 168 165 168 164 152 146 138 129 125 120 112 99 91 80 74 79 62 70 52 26 360 3 4 350 342 347 352 353 347 331 313 298 285 263 253
176 177 179 177 175 172 161 142 141 138 139 134 130 124 115 107 106 100 89 76 76 75 62 64 67 54 55 27 5 354 330 327 352 14 20 24 17 12 7 7 3 358 354
178 181 181 177 178 169 160 151 147 141 123 104 95 96 97 96 95 88 83 69 67 72 68 71 71 56 36 24 33 352 333 348 28 50 37 32 18 10 11 15 12 10 356
183 184 181 181 175 163 147 127 108 104 90 74 73 72 75 83 86 90 87 80 69 75 60 50 58 65 30 32 68 42 352 344 351 14 15 29 13 6 9 12 14 9 359
181 178 169 154 139 121 115 105 99 88 82 77 72 64 60 73 78 84 86 83 74 78 77 65 62 79 57 26 50 101 92 297 315 323 351 22 13 11 2 1 14 10 7
162 137 126 120 111 108 112 122 131 129 123 106 104 96 80 77 82 86 86 83 81 82 85 79 75 79 87 50 32 52 133 177 218 313 326 342 358 2 350 349 346 340 343
119 116 114 110 107 110 110 123 126 115 113 114 110 105 96 89 93 96 91 88 89 87 91 88 85 82 100 122 107 44 41 46 130 175 288 312 321 310 302 304 306 308 309
100 99 102 104 102 107 115 124 129 132 131 127 120 117 106 95 87 91 93 92 96 99 101 104 95 90 109 145 179 185 171 215 252 221 247 272 285 291 295 292 293 291 292